CW0179 Weather Reports


Display with metric or nautical units.
time (UTC)temp
F
wind
direction
speed
MPH
gust
MPH
rain 1hr
in
rain 24hr
in
rain mn
in
humidity
%
barometer
mb
20260902145236 70 172 0.0 2.0 0.00 0.06 0.00 84 1020.0
20260902143111 69 214 0.0 3.0 0.00 0.07 0.00 85 1019.9
20260902142054 68 172 0.0 3.0 0.00 0.10 0.00 87 1020.1
20260902141101 68 197 0.0 3.0 0.00 0.13 0.00 87 1020.4
20260902140109 67 177 0.0 2.0 0.00 0.13 0.00 88 1020.2
20260902135058 67 238 0.0 1.0 0.00 0.13 0.00 90 1020.0
20260902134116 67 129 0.0 1.0 0.00 0.16 0.00 90 1020.0
20260902133046 66 274 0.0 1.0 0.00 0.16 0.00 90 1019.9
20260902132041 66 298 0.0 2.0 0.00 0.16 0.00 90 1019.7
20260902131024 66 225 0.0 2.0 0.00 0.16 0.00 90 1019.7
20260902130004 66 181 0.0 0.0 0.00 0.16 0.00 90 1019.8
20260902124942 65 235 0.0 1.0 0.00 0.16 0.00 90 1019.7
20260902123933 65 179 0.0 0.0 0.00 0.16 0.00 91 1019.6
20260902122910 65 283 0.0 2.0 0.00 0.16 0.00 91 1019.6
20260902121852 65 188 0.0 3.0 0.00 0.16 0.00 91 1019.5
20260902120910 65 245 0.0 3.0 0.00 0.16 0.00 91 1019.5
20260902115935 65 183 0.0 1.0 0.00 0.17 0.00 92 1019.6
20260902113748 64 158 0.0 0.0 0.00 0.17 0.00 93 1019.7
20260902112720 64 303 0.0 0.0 0.00 0.17 0.00 93 1019.8
20260902111741 64 184 0.0 0.0 0.00 0.17 0.00 93 1019.7
20260902074544 64 173 0.0 0.0 0.00 0.17 0.00 97 1018.2
20260902073550 64 166 0.0 0.0 0.00 0.17 0.00 97 1018.1
20260902072541 64 161 0.0 1.0 0.00 0.19 0.00 97 1017.9
20260902071539 64 193 0.0 0.0 0.00 0.19 0.00 97 1017.8
20260902070538 64 187 0.0 0.0 0.00 0.20 0.00 97 1017.9
20260902065516 64 218 0.0 0.0 0.00 0.20 0.00 96 1017.9
20260902064508 64 169 0.0 2.0 0.00 0.23 0.00 96 1017.9
20260902063522 64 165 0.0 0.0 0.00 0.26 0.00 96 1018.0
20260902062522 64 208 0.0 0.0 0.00 0.30 0.00 96 1018.1
20260902061455 64 184 0.0 0.0 0.00 0.39 0.00 96 1018.1
20260902060421 64 226 0.0 1.0 0.00 0.50 0.00 96 1018.2
20260902055444 64 183 0.0 2.0 0.00 0.57 0.00 96 1018.0
20260902054429 64 195 0.0 2.0 0.00 0.64 0.00 96 1017.9
20260902053435 64 162 0.0 1.0 0.00 0.65 0.00 96 1018.0
20260902052421 64 218 0.0 1.0 0.00 0.69 0.00 96 1018.0
20260902050322 64 238 0.0 1.0 0.00 0.74 0.00 96 1017.8
20260902045322 64 188 0.0 2.0 0.00 0.77 0.00 96 1018.1
20260902044310 64 242 0.0 3.0 0.00 0.78 0.00 96 1018.1
20260902041012 64 200 0.0 3.0 0.00 0.78 0.00 96 1017.6
20260902040001 64 221 0.0 2.0 0.00 0.78 0.79 96 1017.6
20260902034938 64 193 0.0 2.0 0.00 0.78 0.79 96 1017.5
20260902032755 64 174 0.0 4.0 0.00 0.78 0.79 96 1017.4
20260902031751 64 181 0.0 4.0 0.00 0.78 0.79 95 1017.3
20260902030741 64 175 0.0 1.0 0.00 0.78 0.79 95 1017.2
20260902025720 64 174 0.0 2.0 0.00 0.78 0.79 95 1017.0
20260902024735 64 187 0.0 2.0 0.00 0.78 0.79 95 1017.3
20260902022617 65 193 0.0 2.0 0.00 0.78 0.79 95 1017.0
20260902020454 65 179 0.0 3.0 0.00 0.78 0.79 95 1016.7
20260902015458 65 256 0.0 3.0 0.00 0.78 0.79 94 1016.5
20260902014425 65 217 0.0 3.0 0.00 0.78 0.79 94 1016.4
20260902013403 66 194 0.0 5.0 0.00 0.78 0.79 93 1016.4
20260902012426 66 266 0.0 5.0 0.00 0.78 0.79 93 1016.2
20260902011440 66 201 0.0 4.0 0.00 0.78 0.79 93 1016.1
20260902005322 66 187 0.0 4.0 0.00 0.78 0.79 92 1016.0
20260902004307 66 186 1.0 7.0 0.00 0.78 0.79 92 1015.8
20260902003313 67 191 1.0 7.0 0.00 0.78 0.79 91 1015.8
20260902002331 67 210 1.0 7.0 0.00 0.78 0.79 91 1015.5
20260902001341 67 311 2.0 7.0 0.00 0.78 0.79 91 1015.4
20260902000352 67 210 1.0 7.0 0.00 0.78 0.79 91 1015.5
20260901235347 68 203 0.0 4.0 0.00 0.78 0.79 92 1015.6
20260901234408 68 172 0.0 1.0 0.00 0.78 0.79 92 1015.4
20260901233429 68 181 1.0 7.0 0.00 0.78 0.79 92 1015.3
20260901232440 68 218 1.0 7.0 0.00 0.78 0.79 91 1015.2
20260901230316 69 260 1.0 8.0 0.00 0.78 0.79 91 1015.1
20260901225310 70 238 1.0 6.0 0.00 0.78 0.79 92 1014.9
20260901224302 70 198 1.0 6.0 0.00 0.78 0.79 92 1014.6
20260901223315 70 56 1.0 5.0 0.00 0.78 0.79 92 1014.4
20260901222308 71 203 0.0 6.0 0.00 0.78 0.79 93 1014.4
20260901221246 71 122 1.0 6.0 0.00 0.78 0.79 93 1014.3
20260901215039 73 118 0.0 1.0 0.00 0.78 0.79 94 1014.0
20260901214037 73 274 0.0 3.0 0.00 0.78 0.79 93 1014.0
20260901213058 74 229 1.0 7.0 0.00 0.78 0.79 92 1014.1
20260901212110 75 177 0.0 4.0 0.00 0.78 0.79 91 1013.8
20260901211039 76 160 0.0 0.0 0.00 0.78 0.79 92 1013.8
20260901210047 76 252 0.0 3.0 0.00 0.78 0.79 91 1013.7
20260901205104 78 122 0.0 0.0 0.00 0.78 0.79 89 1013.8
20260901202943 79 141 0.0 0.0 0.00 0.78 0.79 88 1013.6
20260901202003 80 145 0.0 0.0 0.00 0.78 0.79 88 1013.5
20260901200952 80 155 0.0 0.0 0.00 0.78 0.79 88 1013.5
20260901195957 80 155 0.0 0.0 0.00 0.78 0.79 88 1013.5
20260901194931 79 184 0.0 0.0 0.00 0.78 0.79 90 1013.3
20260901193919 78 188 0.0 0.0 0.00 0.78 0.79 92 1013.6
20260901192914 78 188 0.0 0.0 0.00 0.78 0.79 91 1013.6
20260901191940 78 170 0.0 0.0 0.00 0.78 0.79 91 1013.6
20260901191003 78 170 0.0 0.0 0.00 0.78 0.79 91 1013.5
20260901185945 78 170 0.0 0.0 0.00 0.78 0.79 91 1013.5
20260901182634 76 191 0.0 0.0 0.00 0.78 0.79 93 1013.6
20260901181635 76 162 0.0 0.0 0.00 0.78 0.79 95 1013.7
20260901180658 76 163 0.0 0.0 0.00 0.78 0.79 97 1013.7
20260901175640 75 162 0.0 0.0 0.00 0.78 0.79 97 1013.8
20260901174648 75 163 0.0 0.0 0.00 0.78 0.79 97 1013.7
20260901173655 74 121 0.0 0.0 0.00 0.78 0.79 98 1013.6
20260901171441 74 121 0.0 0.0 0.00 0.78 0.79 98 1013.7
20260901170504 74 122 0.0 0.0 0.00 0.78 0.79 98 1013.7
20260901165440 74 97 0.0 0.0 0.00 0.78 0.79 98 1013.7
20260901164447 74 98 0.0 0.0 0.00 0.78 0.79 99 1013.7
20260901163444 73 98 0.0 0.0 0.00 0.78 0.79 99 1014.0
20260901162503 73 98 0.0 0.0 0.04 0.78 0.79 99 1014.6
20260901161446 73 98 0.0 0.0 0.06 0.78 0.79 99 1014.7
20260901160416 72 98 0.0 0.0 0.13 0.78 0.77 99 1014.8
20260901154242 72 148 0.0 0.0 0.10 0.73 0.74 99 1015.0
20260901153217 72 148 0.0 0.0 0.00 0.72 0.72 99 1014.9
20260901152151 72 148 0.0 0.0 0.00 0.72 0.72 99 1014.8
20260901151150 72 138 0.0 0.0 0.00 0.72 0.72 99 1014.6